Location: Ehingen
(48.2869°N, 9.7112°E)
Time: 14:51:24
(UTC+02:00)

ISS - Visible Passes

Search period start: 20 September 2017 00:00
Search period end: 30 September 2017 00:00
Orbit: 401 x 407 km, 51.6° (Epoch: 20 September)

Date Brightness Start Highest point End Pass type
(mag) Time Alt. Az. Time Alt. Az. Time Alt. Az.
20 Sep -2.4 05:48:53 21° SW 05:48:54 21° SW 05:51:28 10° S visible
21 Sep -1.0 04:59:40 11° SSE 04:59:40 11° SSE 04:59:46 10° SSE visible
25 Sep -1.4 21:18:36 10° SW 21:19:19 15° SSW 21:19:19 15° SSW visible
26 Sep -2.6 20:26:43 10° SSW 20:29:25 24° SE 20:29:37 24° SE visible
27 Sep -1.8 19:35:19 10° S 19:37:13 15° SE 19:39:09 10° E visible
27 Sep -3.1 21:09:58 10° WSW 21:12:24 46° SW 21:12:24 46° SW visible
28 Sep -3.5 20:17:43 10° SW 20:20:52 46° SSE 20:22:21 26° E visible
28 Sep -1.0 21:54:06 10° W 21:55:00 17° W 21:55:00 17° W visible
29 Sep -3.7 21:01:34 10° WSW 21:04:48 69° NNW 21:04:48 69° NNW visible
